W1QED Weather Reports


Display with metric or nautical units.
time (UTC)temp
F
wind
direction
speed
MPH
gust
MPH
rain 1hr
in
rain 24hr
in
rain mn
in
humidity
%
barometer
mb
20260507021024 59 252 1.0 8.0 0.00 0.28 0.28 76 1006.1
20260507020523 59 257 3.0 11.0 0.00 0.28 0.28 77 1005.9
20260507020022 59 248 2.0 11.0 0.00 0.28 0.28 77 1005.8
20260507015523 59 259 6.0 10.0 0.00 0.28 0.28 77 1005.7
20260507015022 59 228 3.0 7.0 0.00 0.28 0.28 77 1005.5
20260507014520 59 243 4.0 8.0 0.00 0.28 0.28 77 1005.6
20260507014020 59 233 4.0 8.0 0.00 0.28 0.28 77 1005.6
20260507013519 59 205 4.0 8.0 0.00 0.28 0.28 77 1005.7
20260507013018 59 217 4.0 7.0 0.00 0.28 0.28 77 1005.5
20260507012518 59 223 3.0 6.0 0.00 0.28 0.28 77 1005.5
20260507012018 59 211 3.0 8.0 0.00 0.28 0.28 77 1005.5
20260507011517 59 218 5.0 8.0 0.00 0.28 0.28 78 1005.4
20260507011015 59 181 4.0 8.0 0.00 0.28 0.28 78 1005.5
20260507010514 59 232 3.0 8.0 0.00 0.28 0.28 78 1005.6
20260507010018 59 236 4.0 11.0 0.00 0.28 0.28 78 1005.5
20260507005513 59 240 5.0 11.0 0.00 0.28 0.28 78 1005.5
20260507005013 59 146 4.0 11.0 0.00 0.28 0.28 78 1005.5
20260507004513 59 238 4.0 11.0 0.00 0.28 0.28 79 1005.4
20260507004011 59 224 5.0 11.0 0.00 0.28 0.28 79 1005.4
20260507003510 59 217 5.0 10.0 0.01 0.28 0.28 80 1005.3
20260507003009 59 212 4.0 8.0 0.01 0.28 0.28 80 1005.2
20260507002508 59 237 4.0 8.0 0.01 0.28 0.28 80 1005.2
20260507002007 59 251 4.0 8.0 0.01 0.28 0.28 80 1005.2
20260507001511 58 219 4.0 6.0 0.02 0.28 0.28 80 1005.3
20260507001006 58 198 2.0 6.0 0.02 0.28 0.28 80 1005.1
20260507000606 58 227 2.0 6.0 0.02 0.28 0.28 80 1005.1
20260507000004 58 150 3.0 5.0 0.03 0.28 0.28 80 1005.1
20260506235503 58 127 2.0 5.0 0.03 0.28 0.28 80 1005.0
20260506235004 58 213 2.0 8.0 0.04 0.28 0.28 80 1005.2
20260506234502 58 226 3.0 8.0 0.04 0.28 0.28 80 1005.2
20260506234002 58 207 3.0 8.0 0.05 0.28 0.28 80 1005.0
20260506233500 58 196 3.0 7.0 0.04 0.27 0.27 80 1004.9
20260506233000 58 227 3.0 7.0 0.05 0.27 0.27 80 1005.0
20260506232600 58 200 2.0 7.0 0.05 0.27 0.27 80 1004.9
20260506232059 58 165 2.0 7.0 0.06 0.27 0.27 80 1004.8
20260506231610 58 215 3.0 7.0 0.05 0.26 0.26 80 1005.0
20260506231059 58 185 2.0 5.0 0.06 0.26 0.26 80 1004.9
20260506230557 58 156 2.0 7.0 0.06 0.26 0.26 80 1004.9
20260506230111 58 217 3.0 7.0 0.05 0.25 0.25 80 1004.9
20260506225555 58 229 3.0 6.0 0.06 0.25 0.25 80 1005.0
20260506225054 58 224 2.0 7.0 0.05 0.24 0.24 80 1005.0
20260506224553 58 214 3.0 7.0 0.05 0.24 0.24 80 1005.1
20260506224053 58 202 3.0 6.0 0.05 0.23 0.23 79 1005.1
20260506223551 58 223 3.0 8.0 0.05 0.23 0.23 79 1005.1
20260506223050 58 226 3.0 8.0 0.04 0.22 0.22 79 1005.0
20260506222551 58 193 3.0 8.0 0.04 0.22 0.22 79 1005.0
20260506222048 58 243 3.0 9.0 0.04 0.21 0.21 78 1005.1
20260506221607 58 212 3.0 9.0 0.04 0.21 0.21 78 1005.0
20260506221047 58 205 4.0 8.0 0.04 0.20 0.20 78 1005.1
20260506220549 58 200 3.0 8.0 0.04 0.20 0.20 78 1005.1
20260506220101 58 182 3.0 8.0 0.04 0.20 0.20 78 1005.2
20260506215544 58 170 4.0 9.0 0.04 0.19 0.19 77 1005.4
20260506215043 58 215 3.0 9.0 0.04 0.19 0.19 77 1005.2
20260506214547 58 227 2.0 8.0 0.05 0.19 0.19 77 1005.2
20260506214041 58 193 2.0 9.0 0.04 0.18 0.18 76 1005.3
20260506213540 59 222 5.0 11.0 0.05 0.18 0.18 76 1005.3
20260506213044 59 233 4.0 11.0 0.05 0.18 0.18 76 1005.4
20260506212537 59 152 3.0 12.0 0.06 0.18 0.18 76 1005.4
20260506212036 59 221 4.0 12.0 0.05 0.17 0.17 76 1005.5
20260506211536 59 207 5.0 9.0 0.06 0.17 0.17 76 1005.4
20260506211033 59 215 5.0 8.0 0.06 0.16 0.16 76 1005.5
20260506210532 59 152 3.0 7.0 0.06 0.16 0.16 76 1005.4
20260506210033 59 220 2.0 7.0 0.07 0.16 0.16 75 1005.6
20260506205530 59 203 2.0 6.0 0.06 0.15 0.15 74 1005.5
20260506205026 59 205 2.0 8.0 0.07 0.15 0.15 74 1005.6
20260506204527 59 154 4.0 11.0 0.06 0.14 0.14 73 1005.7
20260506204022 59 211 3.0 12.0 0.07 0.14 0.14 73 1005.7
20260506203524 59 174 5.0 12.0 0.06 0.13 0.13 73 1005.7
20260506203019 59 174 5.0 12.0 0.06 0.13 0.13 73 1005.8
20260506202516 59 191 5.0 12.0 0.05 0.12 0.12 73 1005.9
20260506202015 59 216 8.0 14.0 0.05 0.12 0.12 73 1006.0
20260506201526 60 166 6.0 14.0 0.04 0.11 0.11 73 1006.0
20260506201011 60 203 5.0 12.0 0.03 0.10 0.10 73 1006.0
20260506200510 60 230 4.0 9.0 0.03 0.10 0.10 72 1005.9
20260506200008 60 221 3.0 7.0 0.03 0.09 0.09 72 1006.0
20260506195508 60 136 3.0 8.0 0.03 0.09 0.09 72 1006.0
20260506195006 60 193 4.0 8.0 0.02 0.08 0.08 71 1006.1
20260506194506 61 202 3.0 10.0 0.01 0.07 0.07 71 1006.0
20260506194003 61 205 4.0 9.0 0.01 0.07 0.07 71 1006.1
20260506193503 61 201 4.0 8.0 0.01 0.07 0.07 71 1006.2
20260506193002 61 216 5.0 10.0 0.02 0.07 0.07 71 1006.1
20260506192504 61 174 3.0 10.0 0.02 0.07 0.07 71 1006.2
20260506192100 61 174 4.0 10.0 0.03 0.07 0.07 70 1006.2
20260506191622 61 218 4.0 10.0 0.03 0.07 0.07 70 1006.1
20260506191058 61 260 6.0 11.0 0.04 0.07 0.07 70 1006.1
20260506190558 61 199 6.0 14.0 0.04 0.07 0.07 70 1006.3
20260506190057 61 255 8.0 14.0 0.04 0.06 0.06 70 1006.2
20260506185556 61 146 6.0 11.0 0.04 0.06 0.06 70 1006.1
20260506185054 61 191 2.0 7.0 0.05 0.06 0.06 70 1006.0
20260506184605 61 198 3.0 8.0 0.05 0.06 0.06 69 1006.2
20260506184053 61 196 4.0 13.0 0.06 0.06 0.06 69 1006.2
20260506183551 61 245 5.0 13.0 0.06 0.06 0.06 69 1006.4
20260506183050 62 207 4.0 11.0 0.05 0.05 0.05 69 1006.4
20260506182548 62 230 5.0 11.0 0.05 0.05 0.05 69 1006.7
20260506182048 62 199 5.0 9.0 0.04 0.04 0.04 68 1006.7
20260506181547 62 240 4.0 11.0 0.04 0.04 0.04 67 1006.6
20260506181046 62 219 5.0 13.0 0.03 0.03 0.03 66 1006.9
20260506180546 63 209 6.0 14.0 0.03 0.03 0.03 66 1006.9
20260506180044 63 201 7.0 14.0 0.02 0.02 0.02 65 1006.9
20260506175544 64 212 8.0 15.0 0.02 0.02 0.02 63 1007.1
20260506175043 64 189 9.0 16.0 0.01 0.01 0.01 61 1007.0
20260506174541 65 237 6.0 16.0 0.00 0.00 0.00 60 1007.0
20260506174041 66 208 9.0 14.0 0.00 0.00 0.00 57 1007.1
20260506173540 67 260 9.0 14.0 0.00 0.00 0.00 55 1006.7
20260506173045 68 247 7.0 15.0 0.00 0.00 0.00 53 1006.8
20260506172539 68 264 7.0 13.0 0.00 0.00 0.00 52 1006.8
20260506172038 68 231 8.0 13.0 0.00 0.00 0.00 51 1006.7
20260506171552 68 247 7.0 15.0 0.00 0.00 0.00 51 1006.6
20260506171036 68 256 5.0 19.0 0.00 0.00 0.00 51 1006.6
20260506170536 68 220 9.0 19.0 0.00 0.00 0.00 50 1006.7
20260506170038 68 203 8.0 17.0 0.00 0.00 0.00 50 1006.6
20260506165535 68 235 10.0 15.0 0.00 0.00 0.00 49 1006.6
20260506165033 69 266 7.0 15.0 0.00 0.00 0.00 50 1006.7
20260506164530 69 245 7.0 16.0 0.00 0.00 0.00 49 1006.7
20260506164030 69 193 6.0 17.0 0.00 0.00 0.00 49 1006.8
20260506163529 69 240 7.0 12.0 0.00 0.00 0.00 49 1006.8
20260506163034 69 233 4.0 12.0 0.00 0.00 0.00 49 1006.9
20260506162528 69 215 7.0 12.0 0.00 0.00 0.00 49 1007.0
20260506162025 69 260 7.0 20.0 0.00 0.00 0.00 49 1007.0
20260506161526 69 236 10.0 20.0 0.00 0.00 0.00 48 1007.1
20260506161024 69 228 6.0 13.0 0.00 0.00 0.00 50 1007.4
20260506160523 69 221 7.0 12.0 0.00 0.00 0.00 50 1007.3
20260506160023 69 233 6.0 15.0 0.00 0.00 0.00 50 1007.4
20260506155520 69 187 6.0 15.0 0.00 0.00 0.00 50 1007.4
20260506155019 69 224 7.0 13.0 0.00 0.00 0.00 50 1007.5
20260506154520 69 226 8.0 15.0 0.00 0.00 0.00 49 1007.7
20260506154017 69 219 7.0 15.0 0.00 0.00 0.00 50 1007.7
20260506153516 69 233 7.0 14.0 0.00 0.00 0.00 50 1007.8
20260506153014 69 231 8.0 16.0 0.00 0.00 0.00 50 1007.9
20260506152515 68 141 4.0 14.0 0.00 0.00 0.00 52 1007.9
20260506152013 68 225 7.0 14.0 0.00 0.00 0.00 51 1007.9
20260506151514 68 210 9.0 15.0 0.00 0.00 0.00 51 1008.0
20260506151010 68 208 6.0 15.0 0.00 0.00 0.00 53 1008.1
20260506150511 68 195 7.0 13.0 0.00 0.00 0.00 53 1008.1
20260506150009 68 206 6.0 17.0 0.00 0.00 0.00 53 1008.3
20260506145509 68 163 7.0 17.0 0.00 0.00 0.00 53 1008.4
20260506145008 68 222 5.0 18.0 0.00 0.00 0.00 53 1008.2
20260506144507 68 248 8.0 18.0 0.00 0.00 0.00 53 1008.0
20260506144106 67 156 6.0 21.0 0.00 0.00 0.00 53 1008.1
20260506143506 67 212 10.0 21.0 0.00 0.00 0.00 53 1008.4
20260506143006 67 198 5.0 12.0 0.00 0.00 0.00 55 1008.5
20260506142503 67 236 6.0 13.0 0.00 0.00 0.00 55 1008.3
20260506142004 67 205 7.0 13.0 0.00 0.00 0.00 55 1008.3
20260506141501 67 168 5.0 14.0 0.00 0.00 0.00 55 1008.2
20260506141100 67 204 7.0 14.0 0.00 0.00 0.00 55 1008.2
20260506140600 67 217 6.0 12.0 0.00 0.00 0.00 56 1008.1
20260506135557 66 130 4.0 8.0 0.00 0.00 0.00 57 1008.1
20260506135055 66 206 3.0 12.0 0.00 0.00 0.00 58 1008.0
20260506134554 65 219 8.0 12.0 0.00 0.00 0.00 57 1008.0
20260506134053 65 211 7.0 12.0 0.00 0.00 0.00 57 1008.2
20260506133553 65 230 5.0 12.0 0.00 0.00 0.00 58 1008.3
20260506133052 65 189 6.0 12.0 0.00 0.00 0.00 58 1008.2
20260506132552 65 203 4.0 12.0 0.00 0.00 0.00 58 1008.4
20260506132053 65 223 4.0 10.0 0.00 0.00 0.00 59 1008.4
20260506131605 65 210 5.0 12.0 0.00 0.00 0.00 59 1008.5
20260506131050 64 217 7.0 12.0 0.00 0.00 0.00 59 1008.6
20260506130549 64 249 5.0 15.0 0.00 0.00 0.00 59 1008.7
20260506130051 64 242 6.0 17.0 0.00 0.00 0.00 59 1008.6
20260506125547 64 235 6.0 14.0 0.00 0.00 0.00 59 1008.6
20260506125046 64 238 7.0 14.0 0.00 0.00 0.00 58 1008.7
20260506124544 64 197 7.0 12.0 0.00 0.00 0.00 58 1008.7
20260506124044 65 240 5.0 11.0 0.00 0.00 0.00 58 1008.5
20260506123543 65 203 7.0 18.0 0.00 0.00 0.00 58 1008.8
20260506123042 65 228 7.0 13.0 0.00 0.00 0.00 57 1008.8
20260506122542 65 205 5.0 11.0 0.00 0.00 0.00 57 1008.6
20260506122041 66 224 5.0 12.0 0.00 0.00 0.00 57 1008.5
20260506121539 66 239 7.0 14.0 0.00 0.00 0.00 57 1008.5
20260506121037 65 183 6.0 15.0 0.00 0.00 0.00 58 1008.5
20260506120537 64 150 8.0 16.0 0.00 0.00 0.00 59 1008.6
20260506120036 64 246 8.0 21.0 0.00 0.00 0.00 58 1008.7
20260506115535 64 198 10.0 21.0 0.00 0.00 0.00 58 1008.7
20260506115034 64 266 6.0 16.0 0.00 0.00 0.00 59 1008.6
20260506114540 64 222 8.0 18.0 0.00 0.00 0.00 59 1008.4
20260506114033 64 221 7.0 18.0 0.00 0.00 0.00 59 1008.5
20260506113531 64 238 5.0 11.0 0.00 0.00 0.00 60 1008.7
20260506113031 63 201 6.0 11.0 0.00 0.00 0.00 61 1008.8
20260506112531 63 202 5.0 10.0 0.00 0.00 0.00 61 1008.9
20260506112029 63 212 5.0 16.0 0.00 0.00 0.00 61 1009.0
20260506111528 63 207 7.0 16.0 0.00 0.00 0.00 61 1009.0
20260506111043 62 129 7.0 15.0 0.00 0.00 0.00 61 1009.0
20260506110528 62 218 7.0 13.0 0.00 0.00 0.00 61 1009.1
20260506110032 62 221 3.0 13.0 0.00 0.00 0.00 61 1009.1
20260506105527 62 211 6.0 13.0 0.00 0.00 0.00 61 1009.0
20260506105025 62 205 5.0 9.0 0.00 0.00 0.00 61 1008.9
20260506104523 62 167 4.0 13.0 0.00 0.00 0.00 61 1008.7
20260506104021 62 240 7.0 13.0 0.00 0.00 0.00 61 1009.0
20260506103522 61 204 6.0 12.0 0.00 0.00 0.00 61 1009.0
20260506103022 61 147 5.0 12.0 0.00 0.00 0.00 62 1009.0
20260506102520 61 175 4.0 11.0 0.00 0.00 0.00 62 1008.9
20260506102019 60 212 3.0 11.0 0.00 0.00 0.00 62 1008.8
20260506101519 60 221 3.0 13.0 0.00 0.00 0.00 62 1008.9
20260506101017 60 214 4.0 11.0 0.00 0.00 0.00 62 1008.9
20260506100516 60 231 5.0 10.0 0.00 0.00 0.00 62 1008.8
20260506100022 60 238 5.0 9.0 0.00 0.00 0.00 62 1008.8
20260506095515 60 217 3.0 9.0 0.00 0.00 0.00 62 1008.9
20260506095015 60 225 2.0 7.0 0.00 0.00 0.00 62 1008.9
20260506094512 60 191 4.0 7.0 0.00 0.00 0.00 62 1008.7
20260506094012 60 218 3.0 8.0 0.00 0.00 0.00 61 1008.8
20260506093512 60 185 3.0 11.0 0.00 0.00 0.00 61 1008.8
20260506093011 60 204 4.0 11.0 0.00 0.00 0.00 62 1008.9
20260506092514 60 252 3.0 11.0 0.00 0.00 0.00 61 1008.7
20260506092010 60 196 4.0 11.0 0.00 0.00 0.00 62 1008.7
20260506091509 60 200 4.0 9.0 0.00 0.00 0.00 62 1008.7
20260506091008 60 165 2.0 8.0 0.00 0.00 0.00 61 1008.9
20260506090507 60 177 5.0 8.0 0.00 0.00 0.00 62 1008.9
20260506090006 60 230 2.0 7.0 0.00 0.00 0.00 61 1008.9
20260506085506 60 208 3.0 9.0 0.00 0.00 0.00 61 1008.9
20260506085005 60 230 5.0 9.0 0.00 0.00 0.00 61 1008.9
20260506084504 60 196 1.0 8.0 0.00 0.00 0.00 61 1008.9
20260506084003 60 157 3.0 6.0 0.00 0.00 0.00 61 1008.9
20260506083502 60 221 1.0 3.0 0.00 0.00 0.00 61 1008.9
20260506083101 60 226 1.0 6.0 0.00 0.00 0.00 60 1008.9
20260506082601 60 239 2.0 6.0 0.00 0.00 0.00 60 1008.9
20260506082058 61 211 2.0 8.0 0.00 0.00 0.00 60 1008.9
20260506081659 61 206 4.0 8.0 0.00 0.00 0.00 60 1009.0
20260506081056 61 226 3.0 8.0 0.00 0.00 0.00 60 1009.0
20260506080556 61 209 3.0 6.0 0.00 0.00 0.00 60 1009.0
20260506073046 62 259 3.0 10.0 0.00 0.00 0.00 56 1009.0
20260506072647 62 192 4.0 10.0 0.00 0.00 0.00 56 1009.0
20260506072044 63 242 3.0 12.0 0.00 0.00 0.00 56 1008.9
20260506071542 63 213 4.0 12.0 0.00 0.00 0.00 55 1009.0
20260506071041 63 227 4.0 12.0 0.00 0.00 0.00 55 1008.8
20260506070542 63 236 4.0 12.0 0.00 0.00 0.00 55 1008.7
20260506062032 64 229 5.0 11.0 0.00 0.00 0.00 52 1008.4
20260506061531 64 243 3.0 10.0 0.00 0.00 0.00 52 1008.4
20260506061030 64 245 4.0 11.0 0.00 0.00 0.00 52 1008.5
20260506060529 64 182 6.0 13.0 0.00 0.00 0.00 52 1008.4
20260506051014 65 190 5.0 11.0 0.00 0.00 0.00 49 1008.7
20260506050512 65 237 5.0 13.0 0.00 0.00 0.00 49 1008.7
20260506045010 64 246 5.0 10.0 0.00 0.00 0.00 49 1008.9
20260506044511 64 205 5.0 10.0 0.00 0.00 0.00 49 1008.9
20260506044008 64 261 5.0 10.0 0.00 0.00 0.00 49 1009.0
20260506043507 64 203 5.0 11.0 0.00 0.00 0.00 49 1008.9
20260506043005 65 243 5.0 13.0 0.00 0.00 0.00 48 1009.1
20260506042506 65 253 7.0 16.0 0.00 0.00 0.00 48 1009.2
20260506042004 65 214 9.0 16.0 0.00 0.00 0.00 48 1009.1
20260506041502 65 249 6.0 18.0 0.00 0.00 0.00 48 1009.0
20260506041001 65 200 6.0 15.0 0.00 0.00 0.00 48 1008.9
20260506040501 65 201 7.0 16.0 0.00 0.00 0.00 48 1009.0
20260506040110 65 212 8.0 16.0 0.00 0.00 0.00 48 1009.0
20260506035600 64 233 6.0 17.0 0.00 0.00 0.00 48 1008.9
20260506035058 64 212 8.0 17.0 0.00 0.00 0.00 48 1009.0
20260506034557 64 235 7.0 14.0 0.00 0.00 0.00 49 1009.1
20260506034055 64 187 6.0 13.0 0.00 0.00 0.00 49 1009.1
20260506033555 64 242 4.0 10.0 0.00 0.00 0.00 49 1009.1
20260506033056 64 214 2.0 6.0 0.00 0.00 0.00 49 1009.1
20260506032554 64 207 2.0 8.0 0.00 0.00 0.00 48 1009.1
20260506032054 64 205 1.0 6.0 0.00 0.00 0.00 48 1009.1
20260506031653 64 231 3.0 6.0 0.00 0.00 0.00 48 1009.0
20260506031053 64 203 3.0 6.0 0.00 0.00 0.00 47 1009.1
20260506030551 64 211 2.0 5.0 0.00 0.00 0.00 47 1009.1
20260506025551 65 217 1.0 3.0 0.00 0.00 0.00 47 1009.1
20260506025050 65 212 1.0 9.0 0.00 0.00 0.00 47 1009.0
20260506024555 65 229 4.0 9.0 0.00 0.00 0.00 47 1009.0
20260506024048 65 221 2.0 5.0 0.00 0.00 0.00 47 1009.1
20260506023548 65 193 2.0 4.0 0.00 0.00 0.00 47 1009.0
20260506023047 65 220 1.0 5.0 0.00 0.00 0.00 46 1009.0
20260506022547 66 202 2.0 7.0 0.00 0.00 0.00 46 1009.0
20260506022047 66 221 3.0 7.0 0.00 0.00 0.00 45 1009.0
20260506021546 66 219 2.0 8.0 0.00 0.00 0.00 45 1009.1
20260506021146 66 200 4.0 8.0 0.00 0.00 0.00 46 1009.0